Retour au catalogue

METEOR 3-5

ActifMétéoPO
NORAD 21655·PAYLOAD·🇷🇺 Russia

Lancé Aug 15, 1991 depuis Plesetsk Cosmodrome

Loading…

Prochains Passages (prochaines 24 heures)

TLE

FraisSource: Space-Track

Époque: Sep 13, 2026, 23:51 UTC

1 21655U 91056A   26256.99381175 -.00000145  00000-0 -40721-3 0  9993
2 21655  82.5516  76.6065 0012231 275.7122  84.2606 13.17161040686261

Suivez METEOR 3-5 en temps réel avec AllMySat

Download on the App Store